User: anonymous   Login
Location: Unspecified
(0.0000°N, 0.0000°E)
Time: 11:00:23
(UTC+00:00)
Language:

STARLINK-5366 - Orbit

View from above orbital plane
View from above orbital plane
View from above satellite
View from above satellite

Ground track
Ground track

The orbit is defined by the following mean orbital elements,

1 55499U          26145.35264162 +.00000000 +00000-0 +95658-4 0 00009
2 55499  42.9988 266.4471 0001334 281.0311  79.0390 15.27585716    06
Epoch (UTC): 25 May 2026 08:27:48
Eccentricity: 0.0001334
inclination: 42.9988°
perigee height: 482 km
apogee height: 484 km
right ascension of ascending node: 266.4471°
argument of perigee: 281.0311°
revolutions per day: 15.27585716
mean anomaly at epoch: 79.0390°

The dashed part of the orbit path shows where the satellite is in the earth's shadow,  

DLR